CAPE
2 2 5 21 21 8 1 1 2 2 0 2 0 0 0 4 18 18 7 7 7 12 7 15 15 14 nan nan nan nan nan nan nan nan nan nan nan nan nan nan nan nan nan nan nan nan nan nan nan nan nan nan nan nan 16 33 33 57 91 111 111 125 139 131 131 124 102 56 47 47 38 33 29 29 22 22 29 29 61 86 86 111 131 149 149 150
nan nan 9 28 28 22 5 2 2 2 0 0 nan nan nan 0 6 6 8 10 10 18 11 9 9 10 10 nan nan nan nan nan nan nan nan nan nan nan nan nan nan nan nan nan nan nan nan nan nan nan nan nan nan nan 1 12 12 27 40 55 55 79 104 114 114 124 102 68 46 46 34 24 16 16 12 19 36 36 72 95 95 118 140 150 150 156
nan nan 11 33 33 33 9 4 1 1 1 nan nan nan nan nan 0 0 2 5 5 12 13 11 11 9 10 0 nan nan nan nan nan nan nan nan nan nan nan nan nan nan nan nan nan nan nan nan nan nan nan nan nan nan nan nan nan 2 7 13 13 20 26 48 48 52 50 33 25 25 14 4 4 4 7 26 64 64 92 106 106 118 142 149 149 162
2 1 2 11 11 24 14 10 13 13 15 6 2 2 2 1 1 1 2 1 1 5 9 9 9 10 18 8 nan nan nan nan nan nan nan nan nan nan nan nan nan nan nan nan nan nan nan nan nan nan nan nan nan nan nan nan nan nan nan nan nan nan 0 6 6 8 7 3 1 1 nan nan nan nan 5 39 68 68 91 99 99 112 136 155 155 159
3 0 0 4 4 7 15 21 31 31 29 25 15 15 8 5 2 2 1 1 1 3 2 2 2 5 9 14 4 4 nan nan nan nan nan 0 0 0 nan nan nan nan nan nan nan nan nan nan nan nan nan nan nan nan nan nan nan nan nan nan nan nan nan nan nan nan nan nan nan nan nan nan nan nan 1 26 64 64 86 98 98 101 115 133 133 156
nan nan nan 0 0 nan 4 15 27 27 36 33 27 27 14 6 2 2 1 1 1 0 nan nan nan 0 2 12 5 5 nan nan nan nan 0 1 0 0 nan nan nan nan nan nan nan nan nan nan nan nan nan nan nan nan nan nan nan nan nan nan nan nan nan nan nan nan nan nan nan nan nan nan nan nan nan 11 47 47 89 96 96 101 101 112 112 144
nan nan nan nan nan nan nan 1 5 5 12 18 23 23 15 14 6 6 2 0 0 0 nan nan nan nan 1 3 5 5 2 nan nan nan 1 1 1 1 nan nan nan nan nan nan nan nan nan nan nan nan nan nan nan nan nan nan nan nan nan nan nan nan nan nan nan nan nan nan nan nan nan nan nan nan nan 1 28 28 65 99 99 106 98 94 94 117
nan nan 3 1 1 1 1 2 5 5 10 14 13 13 16 14 13 13 20 20 20 6 1 0 0 0 0 2 3 3 9 10 8 8 1 1 2 2 1 0 0 0 0 nan nan nan nan nan nan nan nan nan nan nan nan nan nan nan nan nan nan nan nan nan nan nan nan nan nan nan nan nan nan nan nan nan nan nan 3 77 77 126 113 97 97 106
nan nan nan nan nan nan nan nan 4 4 15 20 19 19 15 10 10 10 14 12 12 10 5 2 2 0 nan 0 2 2 5 12 12 12 8 5 4 4 3 2 2 1 0 0 0 0 nan nan nan nan nan nan nan nan nan nan nan nan nan nan nan nan nan nan nan nan nan nan nan nan nan nan nan nan nan nan nan nan nan 17 17 91 113 104 104 121
nan nan nan nan nan nan nan nan 2 2 27 29 40 40 38 21 16 16 11 9 9 9 7 10 10 2 0 1 5 5 6 13 11 11 7 nan 1 1 nan nan nan 2 nan 0 0 nan nan nan nan nan nan nan nan nan nan nan nan nan nan nan nan nan nan nan nan nan nan nan nan nan nan nan nan nan nan nan nan nan nan nan nan 27 66 103 103 122
nan nan nan nan nan nan nan 0 4 4 30 35 37 37 38 31 34 34 27 22 22 14 7 10 10 8 4 2 3 3 4 12 15 15 12 nan nan nan nan nan nan nan nan nan nan nan nan nan nan nan nan nan nan nan nan nan nan nan nan nan nan nan nan nan nan nan nan nan nan nan nan nan nan nan nan nan nan nan nan nan nan 0 8 60 60 107
nan nan nan nan nan nan nan nan 15 15 47 37 17 17 13 23 51 51 48 38 38 27 21 15 15 15 15 4 3 3 3 10 20 20 16 4 1 1 nan nan nan nan nan nan nan nan nan nan nan nan nan nan nan nan nan nan nan nan nan nan nan nan nan nan nan nan nan nan nan nan nan nan nan nan nan nan nan nan nan nan nan nan nan 8 8 79
nan nan nan nan nan nan nan nan nan nan 5 14 18 18 16 17 46 46 62 54 54 40 30 29 29 24 21 18 13 13 11 15 19 19 15 9 2 2 0 nan nan nan 0 1 1 1 nan nan nan nan nan nan nan nan nan nan nan nan nan nan nan nan nan nan nan nan nan nan nan nan nan nan nan nan nan nan nan nan nan nan nan nan nan 1 1 41
nan nan nan nan nan nan nan nan nan nan nan nan 4 4 14 23 43 43 52 45 45 44 40 33 33 26 15 14 19 19 17 20 24 24 19 19 9 9 1 1 1 1 0 1 1 1 0 nan nan nan nan nan nan nan nan nan nan nan nan nan nan nan nan nan nan nan nan nan nan nan nan nan nan nan nan nan nan nan nan nan nan nan nan nan nan 17
nan nan nan nan nan nan nan nan nan nan nan nan nan nan 1 9 32 32 45 44 44 45 45 44 44 37 14 11 15 15 18 23 20 20 21 18 20 20 7 4 4 5 4 2 2 2 2 0 0 1 0 nan nan nan nan nan nan nan nan nan nan nan nan nan nan nan nan nan nan nan nan nan nan nan nan nan nan nan nan nan nan nan nan nan nan 2
1 0 nan nan nan nan nan nan nan nan nan nan nan nan 3 12 25 25 43 50 50 53 47 47 47 39 19 12 12 12 21 27 17 17 17 16 15 15 14 9 9 5 8 7 7 6 7 5 5 4 4 nan nan nan nan nan nan nan nan nan nan nan nan nan nan nan nan nan nan nan nan nan nan nan nan nan nan nan nan nan nan nan nan nan nan nan
10 9 5 1 1 nan nan nan nan nan nan nan 1 1 10 16 27 27 46 75 75 95 99 59 59 43 26 23 27 27 48 36 28 28 20 11 11 11 22 15 15 8 11 13 13 10 7 10 10 9 5 nan nan nan nan nan nan nan nan nan nan nan nan nan nan nan nan nan nan nan nan nan nan nan nan nan nan nan nan nan nan nan nan nan nan nan
23 19 9 8 8 0 nan nan nan nan 0 nan 1 1 5 9 26 26 74 131 131 129 116 105 105 83 60 33 50 50 86 46 32 32 23 10 14 14 42 26 26 15 13 12 12 11 12 13 13 18 7 nan nan nan nan nan nan nan nan nan nan nan nan nan nan nan nan nan nan nan nan nan nan nan nan nan nan nan nan nan nan nan nan nan nan nan
21 17 13 7 7 3 0 nan 0 0 0 1 2 2 3 6 15 15 28 53 53 76 87 101 101 105 114 74 81 81 90 57 45 45 31 15 12 12 46 36 36 18 17 13 13 10 14 12 12 8 0 nan nan nan nan nan nan nan nan nan nan nan nan nan nan nan nan nan nan nan nan nan nan nan nan nan nan nan nan nan nan nan nan nan nan nan
20 16 16 12 12 11 7 5 3 3 1 4 5 5 5 6 7 7 9 19 19 35 56 76 76 80 98 102 92 92 70 61 44 44 36 23 12 12 30 37 37 18 23 16 16 16 17 15 15 7 nan nan nan nan nan nan nan nan nan nan nan nan nan nan nan nan nan nan nan nan nan nan nan nan nan nan nan nan nan nan nan nan nan nan nan nan
24 22 16 13 13 13 8 9 9 9 8 14 16 16 12 10 7 7 6 13 13 19 30 39 39 50 82 104 125 125 91 75 47 47 34 23 20 20 30 31 31 24 25 19 19 14 17 19 19 18 6 0 nan nan nan nan nan nan nan nan nan nan nan nan nan nan nan nan nan nan nan nan nan nan nan nan nan nan nan nan nan nan nan nan nan nan
23 19 15 16 16 15 16 15 15 15 19 25 21 21 18 15 13 13 12 12 12 15 22 33 33 37 56 59 89 89 91 99 95 95 54 29 21 21 34 33 33 27 24 17 17 15 23 26 26 22 15 3 nan nan nan nan nan nan nan nan nan nan nan nan nan nan nan nan nan nan nan nan nan nan nan nan nan nan nan nan nan nan nan nan nan nan
24 21 18 19 19 20 18 20 23 23 26 33 32 32 24 20 17 17 15 16 16 18 20 27 27 36 45 27 6 6 12 89 103 103 93 52 33 33 35 30 30 17 18 18 18 17 25 26 26 22 13 5 2 2 nan nan nan nan nan nan nan nan nan nan nan nan nan nan nan nan nan nan nan nan nan nan nan nan nan nan nan nan nan nan nan nan
40 33 28 28 28 36 40 36 45 45 48 48 46 46 27 24 22 22 14 16 16 23 27 34 34 40 39 30 7 7 nan 15 105 105 101 77 60 60 28 19 19 8 12 16 16 16 26 24 24 23 14 3 2 2 2 0 0 nan nan nan nan nan nan nan nan nan nan nan nan nan nan nan nan nan nan nan nan nan nan nan nan nan nan nan nan nan
26 32 35 30 30 39 46 66 94 94 80 86 78 78 51 49 55 55 59 46 46 47 43 51 51 52 41 34 16 16 3 5 43 43 103 101 118 118 67 10 10 2 9 15 15 23 27 23 23 20 17 5 2 2 2 0 0 nan nan nan nan nan nan nan nan nan nan nan nan nan nan nan nan nan nan nan nan nan nan nan nan nan nan nan nan nan
19 20 19 20 20 39 51 59 60 60 60 50 64 64 96 95 90 90 68 67 67 82 86 68 68 64 45 29 14 14 11 13 29 29 69 80 82 82 138 14 14 11 5 18 18 30 28 27 27 17 13 8 3 3 1 1 1 nan nan nan nan nan nan nan nan nan nan nan nan nan nan nan nan nan nan nan nan nan nan nan nan nan nan nan nan nan
33 35 36 40 40 42 48 54 59 59 69 58 30 30 29 55 57 57 57 83 83 105 96 72 72 84 63 41 24 24 13 16 19 19 40 51 67 67 127 69 69 35 9 19 19 35 21 22 22 15 8 7 6 6 2 1 1 nan nan nan nan nan nan nan nan nan nan nan nan nan nan nan nan nan nan nan nan nan nan nan nan nan nan nan nan nan
35 38 38 41 41 42 47 52 57 57 60 65 70 70 45 32 31 31 40 41 41 73 68 73 73 91 88 56 48 48 25 16 17 17 22 45 48 48 97 132 132 101 21 17 17 18 12 15 15 14 7 7 10 10 5 1 1 nan nan nan nan nan nan nan nan nan nan nan nan nan nan nan nan nan nan nan nan nan nan nan nan nan nan nan nan nan
31 33 37 39 39 43 46 47 55 55 60 61 70 70 67 50 33 33 28 24 24 30 46 73 73 93 91 103 83 83 65 34 23 23 37 97 40 40 44 53 53 67 28 18 18 3 1 1 1 12 6 7 10 10 9 5 5 3 nan nan nan nan nan nan nan nan nan nan nan nan nan nan nan nan nan nan nan nan nan nan nan nan nan nan nan nan
21 29 30 37 37 38 42 40 47 47 57 63 68 68 65 50 37 37 28 27 27 25 29 54 54 80 97 117 120 120 114 76 50 50 108 119 52 52 47 40 40 42 13 16 16 0 0 0 0 3 3 4 7 7 10 10 10 11 7 2 2 nan nan nan nan nan nan nan nan nan nan nan nan nan nan nan nan nan nan nan nan nan nan nan nan nan
28 29 27 32 32 35 33 31 47 47 66 65 66 66 60 45 37 37 31 30 30 30 23 32 32 51 72 113 116 116 99 130 136 136 179 130 77 77 92 59 59 52 25 14 14 6 nan 1 1 2 1 2 3 3 5 12 12 17 17 10 10 2 nan nan nan nan nan nan nan nan nan nan nan nan nan nan nan nan nan nan nan nan nan nan nan nan
33 29 34 35 35 30 29 30 33 33 25 25 31 31 40 45 44 44 44 39 39 36 33 36 36 44 61 95 95 95 92 157 298 298 318 197 207 207 156 130 130 71 20 14 14 22 32 31 31 nan 0 0 nan nan 0 0 0 1 5 9 9 2 nan nan nan nan nan nan nan nan nan nan nan nan nan nan nan nan nan nan nan nan nan nan nan nan
28 24 19 24 24 20 22 17 19 19 16 17 21 21 30 39 49 49 56 48 48 35 36 51 51 73 95 87 84 84 124 175 237 237 292 197 180 180 169 117 117 47 5 5 5 15 42 80 80 nan 1 0 nan nan nan 0 0 0 nan 0 0 nan nan nan nan nan nan nan nan nan nan nan nan nan nan nan nan nan nan nan nan nan nan nan nan nan
37 39 38 34 34 27 18 18 18 18 14 17 23 23 28 27 39 39 56 48 48 38 31 38 38 84 107 93 78 78 89 168 294 294 387 228 154 154 197 138 138 67 8 1 1 nan 2 54 54 8 1 1 nan nan nan nan nan 0 nan nan nan nan nan nan nan nan nan nan nan nan nan nan 0 0 nan 0 nan nan nan nan nan nan nan nan nan nan
41 46 44 40 40 35 35 32 21 21 14 18 19 19 18 17 19 19 33 41 41 33 30 35 35 63 88 111 102 102 80 124 303 303 384 229 119 119 158 159 159 126 28 7 7 1 3 12 12 16 1 1 0 0 nan 0 0 0 0 nan nan nan nan nan nan nan nan nan nan nan nan nan nan nan nan nan nan nan nan nan nan nan nan nan nan nan
41 35 42 44 44 52 47 38 26 26 19 14 14 14 13 10 12 12 17 29 29 37 34 27 27 44 76 116 142 142 107 110 206 206 342 282 138 138 114 193 193 195 81 34 34 14 8 8 8 11 4 2 1 1 nan 0 0 0 0 nan nan nan nan nan nan nan nan nan nan nan nan nan nan nan nan nan nan nan 0 0 0 nan nan nan nan nan
55 49 50 51 51 55 46 35 17 17 14 7 12 12 9 9 11 11 19 25 25 46 47 59 59 76 108 136 161 161 175 167 235 235 351 350 227 227 123 142 142 159 96 57 57 39 22 6 6 5 5 2 2 2 nan 0 0 0 nan nan nan nan nan nan nan nan nan nan nan nan nan nan nan nan nan 0 0 0 2 2 2 0 nan nan nan nan
58 56 61 40 40 39 28 22 17 17 17 15 13 13 12 17 20 20 24 21 21 37 50 71 71 106 175 182 208 208 243 279 253 253 334 339 252 252 181 118 118 87 88 86 86 64 40 8 8 3 3 2 1 1 1 nan nan nan nan nan nan nan nan nan nan nan nan nan nan nan nan nan nan nan nan nan nan nan nan 1 1 2 0 0 0 nan
39 37 32 18 18 17 16 14 17 17 22 23 21 21 23 31 40 40 38 36 36 47 58 58 58 105 37 43 160 160 156 36 6 6 34 22 130 130 233 170 170 137 120 119 119 93 65 48 48 17 5 3 1 1 0 nan nan nan nan nan nan nan nan nan nan nan nan nan nan nan nan nan nan nan nan nan nan nan nan nan nan 2 0 0 0 2
17 17 19 16 16 13 9 11 12 12 12 22 33 33 39 46 53 53 60 73 73 78 65 72 72 113 80 101 128 128 89 40 57 57 16 nan 15 15 185 187 187 189 182 153 153 128 89 89 89 60 15 4 1 1 nan nan nan nan nan nan nan nan nan nan nan nan nan nan nan nan nan nan nan nan nan nan nan nan nan nan nan nan 0 0 0 1
23 21 16 13 13 14 12 9 7 7 10 14 21 21 40 55 69 69 87 104 104 115 100 108 108 105 136 156 142 142 107 71 105 105 52 nan 3 3 144 199 199 186 177 165 165 144 141 95 95 70 35 11 1 1 nan 0 0 0 nan nan nan nan nan nan nan nan nan nan nan nan nan nan nan nan nan nan nan nan nan nan nan nan nan 0 0 0
32 27 19 13 13 8 7 9 12 12 13 14 27 27 44 45 63 63 80 98 98 112 96 88 88 126 141 162 162 162 187 216 87 87 31 nan 7 7 151 211 211 205 165 113 113 102 117 101 101 71 39 6 nan nan nan 0 0 1 nan nan nan nan nan nan nan nan nan nan nan nan nan nan nan nan nan nan nan nan nan nan nan 0 0 nan nan 0
29 28 29 24 24 22 22 17 19 19 37 49 49 49 47 48 49 49 55 71 71 66 45 77 77 125 130 127 130 130 177 212 284 284 182 16 5 5 178 216 216 218 204 80 80 64 55 61 61 66 16 1 nan nan nan nan nan 1 0 nan nan nan nan nan nan nan nan nan nan nan nan nan nan nan nan nan nan nan nan 0 0 3 2 nan nan nan
42 44 43 52 52 60 55 43 63 63 89 84 67 67 42 41 47 47 45 63 63 59 52 58 58 104 112 87 124 124 193 287 342 342 311 240 45 45 155 201 201 187 248 68 68 51 20 22 22 37 5 nan nan nan nan nan nan 0 1 nan nan nan nan nan nan 0 nan nan 0 0 nan nan nan nan nan nan nan nan nan nan nan nan 3 1 1 0
36 27 31 35 35 23 13 30 58 58 69 79 63 63 46 44 52 52 51 68 68 59 57 59 59 96 74 83 116 116 208 255 272 272 319 264 44 44 44 137 137 208 234 96 96 35 16 16 16 23 5 nan nan nan nan nan nan 0 2 0 0 nan nan 1 1 0 nan 1 nan nan nan nan nan nan nan nan nan nan nan nan nan nan 2 2 2 1
21 15 20 17 17 15 22 30 39 39 63 75 69 69 59 62 65 65 77 80 80 73 69 95 95 96 59 98 111 111 173 230 269 269 302 310 214 214 97 89 89 144 176 96 96 39 14 6 6 11 0 nan nan nan nan nan nan 0 0 1 1 nan nan nan nan nan nan nan nan nan nan nan nan nan nan nan nan nan nan nan nan nan 1 nan nan 1
24 23 21 17 17 16 19 29 35 35 42 65 68 68 69 83 89 89 105 101 101 92 78 82 82 102 79 119 131 131 144 156 239 239 306 312 305 305 174 93 93 62 104 87 87 39 13 3 3 5 4 2 nan nan nan nan nan 0 1 1 1 0 nan nan nan nan nan 0 0 0 nan nan nan nan nan nan nan nan nan nan nan nan 1 nan nan nan
32 36 29 27 27 26 27 27 28 28 30 39 42 42 59 78 111 111 132 138 138 124 116 121 121 103 111 161 179 179 217 170 215 215 272 290 298 298 193 94 94 52 85 74 74 32 12 0 0 2 4 1 nan nan 0 1 1 2 1 1 1 nan nan 0 0 nan nan nan 0 0 0 nan nan nan nan nan nan nan nan nan nan nan nan nan nan nan
47 43 38 38 38 37 32 26 27 27 28 34 37 37 41 59 100 100 124 151 151 144 113 105 105 88 132 188 201 201 256 245 258 258 264 296 280 280 197 120 120 108 102 84 84 51 36 22 22 24 5 2 0 0 1 2 2 4 2 0 0 nan nan 0 0 0 nan nan nan nan nan nan nan nan nan nan nan nan nan nan nan nan nan nan nan nan
37 41 48 51 51 41 31 29 27 27 26 30 37 37 43 55 65 65 107 142 142 149 103 80 80 122 166 180 209 209 233 249 306 306 310 302 233 233 176 88 88 93 30 nan nan nan nan nan nan nan nan 5 1 1 1 3 3 3 2 0 0 0 nan 0 0 0 0 nan nan nan nan 0 nan nan nan nan nan nan nan nan nan nan 0 0 0 nan
26 29 33 34 34 38 38 35 34 34 35 37 45 45 47 51 76 76 109 143 143 150 151 149 149 151 173 164 183 183 167 210 262 262 290 278 199 199 141 57 57 5 nan nan nan nan 0 0 0 0 1 nan 1 1 3 3 3 1 1 1 1 0 nan 0 0 0 0 nan nan nan nan nan nan nan nan nan nan nan nan nan nan nan nan nan nan 0
CIN
-0 -0 -0 -0 -0 -0 -0 -0 -0 -0 -1 -1 -1 -1 -0 -27 -2 -2 -10 -1 -1 -0 -0 -0 -0 -0 nan nan nan nan nan nan nan nan nan nan nan nan nan nan nan nan nan nan nan nan nan nan nan nan nan nan nan nan -37 -27 -27 -20 -12 -7 -7 -5 -4 -0 -0 -0 -4 -8 -10 -10 -11 -15 -22 -22 -29 -30 -37 -37 -39 -30 -30 -18 -9 -7 -7 -8
nan nan -0 -0 -0 -0 -0 -0 -0 -0 -0 -0 nan nan nan -0 -1 -1 -1 -0 -0 -0 -0 -0 -0 -0 -0 nan nan nan nan nan nan nan nan nan nan nan nan nan nan nan nan nan nan nan nan nan nan nan nan nan nan nan -47 -35 -35 -24 -17 -11 -11 -5 -2 -1 -1 -0 -0 -5 -9 -9 -13 -20 -28 -28 -32 -26 -26 -26 -29 -22 -22 -12 -5 -6 -6 -5
nan nan -0 -0 -0 -0 -0 -0 -0 -0 -0 nan nan nan nan nan -0 -0 -0 -0 -0 -0 -0 -0 -0 -0 -0 -7 nan nan nan nan nan nan nan nan nan nan nan nan nan nan nan nan nan nan nan nan nan nan nan nan nan nan nan nan nan -42 -37 -31 -31 -23 -17 -7 -7 -6 -8 -15 -21 -21 -28 -40 -39 -39 -30 -11 -12 -12 -16 -11 -11 -6 -4 -5 -5 -1
-0 -0 -0 -0 -0 -0 -0 -0 -0 -0 -0 -0 -0 -0 -0 -0 -0 -0 -0 -0 -0 -0 -0 -0 -0 -0 -0 -0 nan nan nan nan nan nan nan nan nan nan nan nan nan nan nan nan nan nan nan nan nan nan nan nan nan nan nan nan nan nan nan nan nan nan -47 -34 -34 -30 -33 -41 -51 -51 nan nan nan nan -22 -7 -7 -7 -7 -6 -6 -4 -5 -4 -4 -0
-0 -0 -0 -0 -0 -0 -0 -0 -0 -0 -0 -0 -0 -0 -0 -0 -0 -0 -0 -0 -0 -0 -0 -0 -0 -0 -0 -3 -15 -15 nan nan nan nan nan -1 -1 -1 nan nan nan nan nan nan nan nan nan nan nan nan nan nan nan nan nan nan nan nan nan nan nan nan nan nan nan nan nan nan nan nan nan nan nan nan -23 -7 -4 -4 -3 -2 -2 -4 -5 -3 -3 -0
nan nan nan -1 -1 nan -0 -1 -0 -0 -2 -0 -0 -0 -0 -0 -0 -0 -0 -0 -0 -0 nan nan nan -0 -0 -0 -9 -9 nan nan nan nan -1 -1 -1 -1 nan nan nan nan nan nan nan nan nan nan nan nan nan nan nan nan nan nan nan nan nan nan nan nan nan nan nan nan nan nan nan nan nan nan nan nan nan -7 -3 -3 -0 -0 -0 -2 -4 -2 -2 -0
nan nan nan nan nan nan nan -1 -0 -0 -1 -1 -0 -0 -0 -4 -0 -0 -2 -1 -1 -0 nan nan nan nan -0 -4 -18 -18 -16 nan nan nan -1 -0 -1 -1 nan nan nan nan nan nan nan nan nan nan nan nan nan nan nan nan nan nan nan nan nan nan nan nan nan nan nan nan nan nan nan nan nan nan nan nan nan -7 -2 -2 -0 -0 -0 -1 -2 -1 -1 -0
nan nan -0 -0 -0 -0 -0 -0 -0 -0 -0 -0 -0 -0 -0 -0 -7 -7 -16 -11 -11 -0 -0 -2 -2 -6 -0 -0 -0 -0 -0 -0 -0 -0 -1 -0 -0 -0 -0 -0 -0 -0 -1 nan nan nan nan nan nan nan nan nan nan nan nan nan nan nan nan nan nan nan nan nan nan nan nan nan nan nan nan nan nan nan nan nan nan nan -9 -3 -3 -1 -0 -0 -0 -0
nan nan nan nan nan nan nan nan -0 -0 -0 -0 -0 -0 -0 -0 -0 -0 -5 -9 -9 -1 -0 -0 -0 -0 nan -0 -0 -0 -0 -0 -0 -0 -0 -0 -0 -0 -0 -0 -0 -0 -0 -0 -0 -1 nan nan nan nan nan nan nan nan nan nan nan nan nan nan nan nan nan nan nan nan nan nan nan nan nan nan nan nan nan nan nan nan nan -11 -11 -4 -0 -0 -0 -0
nan nan nan nan nan nan nan nan -0 -0 -1 -5 -1 -1 -0 -0 -0 -0 -0 -0 -0 -4 -2 -1 -1 -0 -0 -0 -0 -0 -0 -0 -1 -1 -0 nan -1 -1 nan nan nan -0 nan -1 -1 nan nan nan nan nan nan nan nan nan nan nan nan nan nan nan nan nan nan nan nan nan nan nan nan nan nan nan nan nan nan nan nan nan nan nan nan -12 -3 -0 -0 -0
nan nan nan nan nan nan nan -5 -0 -0 -2 -4 -0 -0 -0 -0 -0 -0 -0 -0 -0 -0 -0 -0 -0 -0 -0 -0 -0 -0 -4 -7 -2 -2 -0 nan nan nan nan nan nan nan nan nan nan nan nan nan nan nan nan nan nan nan nan nan nan nan nan nan nan nan nan nan nan nan nan nan nan nan nan nan nan nan nan nan nan nan nan nan nan -28 -11 -2 -2 -0
nan nan nan nan nan nan nan nan -4 -4 -2 -0 -0 -0 -0 -0 -15 -15 -0 -0 -0 -0 -0 -0 -0 -4 -0 -0 -0 -0 -0 -15 -5 -5 -2 -1 -1 -1 nan nan nan nan nan nan nan nan nan nan nan nan nan nan nan nan nan nan nan nan nan nan nan nan nan nan nan nan nan nan nan nan nan nan nan nan nan nan nan nan nan nan nan nan nan -6 -6 -2
nan nan nan nan nan nan nan nan nan nan -0 -0 -0 -0 -0 -0 -7 -7 -6 -0 -0 -0 -0 -0 -0 -2 -3 -2 -0 -0 -0 -10 -8 -8 -4 -2 -1 -1 -1 nan nan nan -1 -1 -1 -1 nan nan nan nan nan nan nan nan nan nan nan nan nan nan nan nan nan nan nan nan nan nan nan nan nan nan nan nan nan nan nan nan nan nan nan nan nan -16 -16 -3
nan nan nan nan nan nan nan nan nan nan nan nan -0 -0 -0 -0 -0 -0 -0 -0 -0 -0 -2 -5 -5 -0 -3 -3 -5 -5 -4 -3 -8 -8 -6 -3 -2 -2 -2 -1 -1 -1 -2 -1 -1 -1 -2 nan nan nan nan nan nan nan nan nan nan nan nan nan nan nan nan nan nan nan nan nan nan nan nan nan nan nan nan nan nan nan nan nan nan nan nan nan nan -4
nan nan nan nan nan nan nan nan nan nan nan nan nan nan -1 -3 -0 -0 -0 -0 -0 -0 -3 -4 -4 -0 -3 -8 -8 -8 -4 -1 -9 -9 -5 -6 -2 -2 -3 -1 -1 -0 -1 -1 -1 -1 -2 -2 -2 -1 -2 nan nan nan nan nan nan nan nan nan nan nan nan nan nan nan nan nan nan nan nan nan nan nan nan nan nan nan nan nan nan nan nan nan nan -14
-0 -0 nan nan nan nan nan nan nan nan nan nan nan nan -3 -0 -0 -0 -0 -0 -0 -0 -6 -6 -6 -0 -2 -3 -7 -7 -3 -1 -7 -7 -2 -0 -8 -8 -6 -2 -2 -0 -0 -0 -0 -1 -1 -1 -1 -1 -1 nan nan nan nan nan nan nan nan nan nan nan nan nan nan nan nan nan nan nan nan nan nan nan nan nan nan nan nan nan nan nan nan nan nan nan
-0 -0 -0 -0 -0 nan nan nan nan nan nan nan -0 -0 -0 -0 -0 -0 -1 -0 -0 -3 -0 -1 -1 -3 -2 -0 -10 -10 -9 -1 -0 -0 -0 -0 -0 -0 -14 -6 -6 -2 -1 -1 -1 -1 -2 -1 -1 -1 -1 nan nan nan nan nan nan nan nan nan nan nan nan nan nan nan nan nan nan nan nan nan nan nan nan nan nan nan nan nan nan nan nan nan nan nan
-1 -0 -0 -0 -0 -0 nan nan nan nan -0 nan -0 -0 -0 -0 -11 -11 -4 -1 -1 -0 -1 -2 -2 -3 -2 -0 -1 -1 -14 -6 -1 -1 -0 -0 -4 -4 -12 -10 -10 -5 -3 -2 -2 -2 -1 -1 -1 -1 -3 nan nan nan nan nan nan nan nan nan nan nan nan nan nan nan nan nan nan nan nan nan nan nan nan nan nan nan nan nan nan nan nan nan nan nan
-1 -0 -0 -0 -0 -0 -0 nan -0 -0 -0 -0 -0 -0 -0 -0 -3 -3 -2 -6 -6 -4 -2 -1 -1 -1 -1 -0 -1 -1 -12 -10 -4 -4 -0 -0 -0 -0 -14 -7 -7 -8 -6 -4 -4 -5 -2 -2 -2 -5 -12 nan nan nan nan nan nan nan nan nan nan nan nan nan nan nan nan nan nan nan nan nan nan nan nan nan nan nan nan nan nan nan nan nan nan nan
-0 -1 -0 -0 -0 -0 -0 -0 -0 -0 -0 -0 -0 -0 -0 -0 -0 -0 -0 -0 -0 -5 -4 -2 -2 -1 -0 -0 -0 -0 -6 -1 -2 -2 -1 -0 -0 -0 -24 -3 -3 -7 -6 -5 -5 -5 -2 -0 -0 -7 nan nan nan nan nan nan nan nan nan nan nan nan nan nan nan nan nan nan nan nan nan nan nan nan nan nan nan nan nan nan nan nan nan nan nan nan
-1 -0 -0 -0 -0 -0 -0 -0 -0 -0 -0 -0 -0 -0 -0 -0 -0 -0 -0 -0 -0 -0 -0 -4 -4 -5 -2 -0 -0 -0 -0 -0 -0 -0 -0 -1 -0 -0 -16 -9 -9 -7 -3 -5 -5 -10 -7 -1 -1 -3 -7 -13 nan nan nan nan nan nan nan nan nan nan nan nan nan nan nan nan nan nan nan nan nan nan nan nan nan nan nan nan nan nan nan nan nan nan
-2 -0 -0 -0 -0 -0 -0 -0 -0 -0 -0 -3 -0 -0 -0 -0 -0 -0 -0 -0 -0 -0 -0 -0 -0 -5 -10 -6 -8 -8 -5 -0 -0 -0 -0 -0 -0 -0 -20 -10 -10 -7 -2 -3 -3 -8 -6 -3 -3 -4 -5 -9 nan nan nan nan nan nan nan nan nan nan nan nan nan nan nan nan nan nan nan nan nan nan nan nan nan nan nan nan nan nan nan nan nan nan
-0 -0 -0 -0 -0 -0 -0 -0 -0 -0 -0 -4 -0 -0 -2 -1 -0 -0 -2 -0 -0 -1 -0 -0 -0 -0 -3 -8 -17 -17 -17 -2 -0 -0 -0 -0 -0 -0 -23 -16 -16 -13 -5 -1 -1 -2 -5 -2 -2 -3 -8 -10 -10 -10 nan nan nan nan nan nan nan nan nan nan nan nan nan nan nan nan nan nan nan nan nan nan nan nan nan nan nan nan nan nan nan nan
-0 -0 -1 -1 -1 -2 -2 -3 -2 -2 -5 -6 -3 -3 -10 -5 -0 -0 -4 -0 -0 -0 -4 -1 -1 -0 -0 -0 -6 -6 nan -16 -2 -2 -0 -0 -0 -0 -12 -21 -21 -18 -10 -2 -2 -1 -4 -4 -4 -3 -8 -12 -10 -10 -11 -16 -16 nan nan nan nan nan nan nan nan nan nan nan nan nan nan nan nan nan nan nan nan nan nan nan nan nan nan nan nan nan
-2 -0 -0 -4 -4 -7 -5 -3 -1 -1 -4 -3 -3 -3 -5 -3 -1 -1 -1 -0 -0 -1 -3 -1 -1 -0 -0 -0 -0 -0 -8 -24 -11 -11 -0 -1 -2 -2 -5 -7 -7 -5 -7 -5 -5 -0 -3 -3 -3 -3 -3 -9 -12 -12 -11 -15 -15 nan nan nan nan nan nan nan nan nan nan nan nan nan nan nan nan nan nan nan nan nan nan nan nan nan nan nan nan nan
-0 -0 -0 -0 -0 -1 -0 -0 -0 -0 -2 -7 -8 -8 -2 -0 -0 -0 -0 -0 -0 -0 -0 -0 -0 -0 -0 -0 -0 -0 -2 -25 -14 -14 -2 -1 -3 -3 -3 -4 -4 -0 -1 -4 -4 -4 -5 -3 -3 -3 -3 -4 -10 -10 -11 -11 -11 nan nan nan nan nan nan nan nan nan nan nan nan nan nan nan nan nan nan nan nan nan nan nan nan nan nan nan nan nan
-0 -0 -0 -0 -0 -0 -0 -0 -0 -0 -0 -0 -6 -6 -16 -9 -2 -2 -0 -0 -0 -0 -0 -0 -0 -0 -1 -1 -0 -0 -0 -3 -15 -15 -8 -2 -1 -1 -1 -2 -2 -0 -0 -2 -2 -5 -6 -2 -2 -2 -2 -3 -4 -4 -8 -8 -8 nan nan nan nan nan nan nan nan nan nan nan nan nan nan nan nan nan nan nan nan nan nan nan nan nan nan nan nan nan
-0 -0 -0 -0 -0 -0 -0 -0 -0 -0 -0 -0 -0 -0 -0 -13 -8 -8 -2 -3 -3 -1 -0 -0 -0 -0 -1 -3 -0 -0 -0 -0 -0 -0 -8 -11 -3 -3 -3 -4 -4 -0 -2 -10 -10 -9 -2 -1 -1 -2 -2 -3 -1 -1 -5 -7 -7 nan nan nan nan nan nan nan nan nan nan nan nan nan nan nan nan nan nan nan nan nan nan nan nan nan nan nan nan nan
-0 -0 -0 -0 -0 -0 -0 -0 -0 -0 -0 -0 -0 -0 -0 -0 -2 -2 -1 -8 -8 -7 -1 -0 -0 -0 -1 -1 -1 -1 -0 -0 -0 -0 -15 -10 -2 -2 -2 -13 -13 -4 -12 -16 -16 -7 -0 -1 -1 -1 -1 -1 -1 -1 -2 -4 -4 -4 nan nan nan nan nan nan nan nan nan nan nan nan nan nan nan nan nan nan nan nan nan nan nan nan nan nan nan nan
-0 -0 -0 -0 -0 -0 -0 -0 -0 -0 -0 -0 -0 -0 -0 -0 -0 -0 -0 -0 -0 -6 -4 -1 -1 -0 -1 -1 -3 -3 -3 -0 -0 -0 -21 -6 -3 -3 -6 -11 -11 -9 -19 -13 -13 -11 -0 -1 -1 -0 -0 -1 -1 -1 -1 -2 -2 -2 -2 -5 -5 nan nan nan nan nan nan nan nan nan nan nan nan nan nan nan nan nan nan nan nan nan nan nan nan nan
-0 -0 -0 -0 -0 -0 -0 -0 -0 -0 -0 -0 -0 -0 -0 -0 -0 -0 -0 -0 -0 -3 -7 -4 -4 -3 -2 -0 -0 -0 -4 -0 -9 -9 -7 -1 -2 -2 -6 -9 -9 -11 -15 -10 -10 -6 nan -1 -1 -0 -0 -0 -1 -1 -1 -1 -1 -1 -1 -2 -2 -4 nan nan nan nan nan nan nan nan nan nan nan nan nan nan nan nan nan nan nan nan nan nan nan nan
-1 -0 -0 -0 -0 -0 -0 -0 -0 -0 -0 -0 -0 -0 -0 -0 -0 -0 -0 -0 -0 -2 -6 -5 -5 -4 -4 -1 -2 -2 -6 -9 -4 -4 -0 -0 -1 -1 -5 -4 -4 -6 -5 -7 -7 -4 -6 -8 -8 nan -0 -0 nan nan -0 -0 -0 -0 -1 -2 -2 -5 nan nan nan nan nan nan nan nan nan nan nan nan nan nan nan nan nan nan nan nan nan nan nan nan
-0 -0 -3 -0 -0 -0 -0 -1 -0 -0 -0 -1 -0 -0 -0 -0 -0 -0 -0 -0 -0 -0 -5 -4 -4 -2 -1 -3 -4 -4 -3 -6 -9 -9 -0 -0 -0 -0 -2 -2 -2 -4 -6 -3 -3 -8 -11 -7 -7 nan -0 -0 nan nan nan -0 -0 -0 nan -5 -5 nan nan nan nan nan nan nan nan nan nan nan nan nan nan nan nan nan nan nan nan nan nan nan nan nan
-0 -0 -0 -0 -0 -0 -1 -1 -0 -0 -2 -0 -0 -0 -0 -0 -0 -0 -0 -0 -0 -1 -5 -9 -9 -1 -1 -2 -4 -4 -5 -3 -6 -6 -1 -0 -0 -0 -0 -1 -1 -2 -14 -15 -15 nan -6 -4 -4 -0 -0 -0 nan nan nan nan nan -0 nan nan nan nan nan nan nan nan nan nan nan nan nan nan -0 -0 nan -1 nan nan nan nan nan nan nan nan nan nan
-3 -0 -0 -0 -0 -0 -0 -0 -0 -0 -1 -0 -0 -0 -0 -0 -0 -0 -0 -0 -0 -3 -8 -8 -8 -4 -5 -2 -2 -2 -4 -4 -5 -5 -3 -1 -0 -0 -0 -1 -1 -4 -9 -1 -1 -2 -2 -2 -2 -0 -0 -0 -0 -0 nan -0 -0 -0 -0 nan nan nan nan nan nan nan nan nan nan nan nan nan nan nan nan nan nan nan nan nan nan nan nan nan nan nan
-4 -4 -0 -0 -0 -0 -0 -0 -0 -0 -1 -0 -0 -0 -0 -0 -0 -0 -0 -6 -6 -2 -7 -15 -15 -12 -9 -4 -1 -1 -3 -1 -6 -6 -6 -1 -0 -0 -0 -0 -0 -4 -5 -2 -2 -1 -1 -1 -1 -0 -0 -0 -0 -0 nan -0 -0 -0 -0 nan nan nan nan nan nan nan nan nan nan nan nan nan nan nan nan nan nan nan -0 -0 -0 nan nan nan nan nan
-1 -1 -1 -0 -0 -0 -0 -0 -1 -1 -1 -5 -0 -0 -0 -0 -4 -4 -2 -23 -23 -14 -7 -10 -10 -8 -6 -4 -3 -3 -2 -1 -2 -2 -3 -2 -1 -1 -0 -0 -0 -2 -2 -1 -1 -1 -0 -0 -0 -0 -0 -0 -0 -0 nan -0 -0 -0 nan nan nan nan nan nan nan nan nan nan nan nan nan nan nan nan nan -0 -1 -1 -0 -0 -0 -0 nan nan nan nan
-1 -0 -0 -4 -4 -1 -3 -5 -6 -6 -1 -0 -0 -0 -0 -0 -0 -0 -0 -17 -17 -11 -9 -6 -6 -4 -0 -2 -2 -2 -2 -1 -6 -6 -3 -0 -1 -1 -1 -2 -2 -1 -0 -0 -0 -1 -0 -0 -0 -0 -0 -1 -0 -0 -0 nan nan nan nan nan nan nan nan nan nan nan nan nan nan nan nan nan nan nan nan nan nan nan nan -1 -1 -0 -0 -1 -1 nan
-0 -0 -0 -3 -3 -3 -5 -7 -4 -4 -0 -0 -3 -3 -3 -0 -0 -0 -0 -2 -2 -0 -7 -11 -11 -2 -24 -23 -3 -3 -5 -33 -60 -60 -35 -31 -1 -1 -0 -1 -1 -1 -1 -0 -0 -0 -0 -0 -0 -0 -0 -1 -0 -0 -0 nan nan nan nan nan nan nan nan nan nan nan nan nan nan nan nan nan nan nan nan nan nan nan nan nan nan -1 -1 -2 -2 -0
-0 -0 -0 -0 -0 -0 -0 -0 -0 -0 -0 -1 -0 -0 -0 -0 -0 -0 -0 -0 -0 -0 -7 -7 -7 -0 -9 -6 -2 -2 -11 -27 -22 -22 -40 nan -17 -17 -0 -0 -0 -2 -2 -0 -0 -0 -0 -0 -0 -0 -0 -0 -0 -0 nan nan nan nan nan nan nan nan nan nan nan nan nan nan nan nan nan nan nan nan nan nan nan nan nan nan nan nan -2 -2 -2 -1
-0 -0 -0 -0 -0 -0 -0 -0 -0 -0 -0 -2 -7 -7 -2 -2 -5 -5 -3 -0 -0 -0 -0 -1 -1 -4 -2 -2 -2 -2 -6 -16 -12 -12 -21 nan -43 -43 -0 -1 -1 -2 -1 -1 -1 -0 -0 -0 -0 -1 -2 -1 -0 -0 nan -1 -1 -1 nan nan nan nan nan nan nan nan nan nan nan nan nan nan nan nan nan nan nan nan nan nan nan nan nan -2 -2 -2
-0 -0 -0 -0 -0 -0 -0 -0 -0 -0 -1 -10 -7 -7 -2 -1 -1 -1 -0 -0 -0 -0 -0 -3 -3 -3 -2 -1 -3 -3 -3 -3 -14 -14 -27 nan -44 -44 -1 -1 -1 -2 -1 -1 -1 -0 -0 -0 -0 -2 -6 -5 nan nan nan -1 -1 -1 nan nan nan nan nan nan nan nan nan nan nan nan nan nan nan nan nan nan nan nan nan nan nan -5 -6 nan nan -4
-0 -0 -0 -0 -0 -0 -0 -5 -4 -4 -1 -1 -0 -0 -0 -0 -1 -1 -1 -1 -1 -2 -7 -4 -4 -2 -1 -1 -2 -2 -3 -4 -1 -1 -6 -44 -57 -57 -5 -1 -1 -1 -1 -1 -1 -0 -0 -1 -1 -3 -6 -7 nan nan nan nan nan -1 -2 nan nan nan nan nan nan nan nan nan nan nan nan nan nan nan nan nan nan nan nan -3 -3 -2 -3 nan nan nan
-0 -0 -3 -4 -4 -1 -0 -0 -0 -0 -0 -0 -0 -0 -2 -1 -1 -1 -3 -1 -1 -2 -3 -6 -6 -2 -1 -2 -1 -1 -2 -1 -1 -1 -4 -9 -23 -23 -3 -1 -1 -2 -1 -1 -1 -1 -2 -1 -1 -2 -7 nan nan nan nan nan nan -1 -1 nan nan nan nan nan nan -1 nan nan -1 -1 nan nan nan nan nan nan nan nan nan nan nan nan -4 -6 -6 -4
-0 -2 -4 -2 -2 -1 -1 -0 -0 -0 -0 -0 -0 -0 -0 -1 -2 -2 -4 -2 -2 -3 -3 -5 -5 -1 -1 -1 -2 -2 -1 -0 -4 -4 -6 -9 -18 -18 -0 -1 -1 -1 -1 -2 -2 -4 -4 -1 -1 -1 -12 nan nan nan nan nan nan -1 -0 -2 -2 nan nan -2 -2 -1 nan -1 nan nan nan nan nan nan nan nan nan nan nan nan nan nan -3 -4 -4 -3
-0 -0 -0 -0 -0 -0 -0 -0 -0 -0 -0 -0 -0 -0 -0 -0 -3 -3 -2 -2 -2 -2 -3 -1 -1 -0 -0 -0 -2 -2 -1 -0 -1 -1 -4 -5 -1 -1 -0 -1 -1 -2 -1 -4 -4 -7 -5 -3 -3 -2 -15 nan nan nan nan nan nan -2 -1 -1 -1 nan nan nan nan nan nan nan nan nan nan nan nan nan nan nan nan nan nan nan nan nan -2 nan nan -3
-0 -0 -0 -0 -0 -0 -0 -0 -0 -0 -0 -0 -0 -0 -0 -0 -1 -1 -0 -1 -1 -1 -1 -2 -2 -1 -1 -0 -1 -1 -1 -0 -0 -0 -1 -2 -1 -1 -2 -3 -3 -3 -2 -4 -4 -7 -7 -8 -8 -4 -1 -0 nan nan nan nan nan -2 -0 -1 -1 -1 nan nan nan nan nan -1 -1 -1 nan nan nan nan nan nan nan nan nan nan nan nan -2 nan nan nan
-0 -0 -0 -0 -0 -0 -0 -0 -0 -0 -0 -0 -0 -0 -0 -1 -1 -1 -0 -0 -0 -0 -1 -1 -1 -1 -1 -1 -1 -1 -1 -1 -0 -0 -1 -2 -1 -1 -4 -3 -3 -2 -2 -4 -4 -4 -4 -7 -7 -6 -1 -0 nan nan -1 -1 -1 -1 -1 -1 -1 nan nan -1 -1 nan nan nan -2 -2 -2 nan nan nan nan nan nan nan nan nan nan nan nan nan nan nan
-0 -0 -0 -0 -0 -0 -0 -2 -1 -1 -0 -1 -1 -1 -1 -0 -0 -0 -0 -0 -0 -0 -0 -0 -0 -1 -0 -0 -2 -2 -0 -0 -0 -0 -0 -0 -1 -1 -2 -1 -1 -1 -1 -2 -2 -2 -2 -3 -3 -3 -3 -2 -2 -2 -1 -0 -0 -0 -1 -2 -2 nan nan -1 -1 -1 nan nan nan nan nan nan nan nan nan nan nan nan nan nan nan nan nan nan nan nan
-0 -0 -0 -0 -0 -0 -1 -1 -1 -1 -1 -2 -1 -1 -2 -3 -4 -4 -2 -0 -0 -0 -0 -0 -0 -0 -0 -1 -2 -2 -0 -0 -0 -0 -0 -0 -3 -3 -2 -2 -2 -1 -2 nan nan nan nan nan nan nan nan -3 -2 -2 -1 -0 -0 -0 -0 -2 -2 -3 nan -2 -2 -1 -1 nan nan nan nan -2 nan nan nan nan nan nan nan nan nan nan -1 -2 -2 nan
-0 -0 -0 -0 -0 -0 -0 -0 -1 -1 -1 -1 -1 -1 -2 -3 -2 -2 -1 -0 -0 -0 -1 -0 -0 -0 -0 -1 -0 -0 -0 -0 -0 -0 -0 -0 -5 -5 -3 -3 -3 -9 nan nan nan nan -0 -0 -0 -0 -0 nan -4 -4 -1 -0 -0 -0 -0 -1 -1 -3 nan -2 -2 -1 -1 nan nan nan nan nan nan nan nan nan nan nan nan nan nan nan nan nan nan -0
Wind_Speed
6 6 7 7 8 7 8 10 11 11 11 10 10 10 9 8 7 7 8 8 9 9 9 9 9 9 10 10 10 12 13 14 15 16 16 16 15 15 14 14 14 13 13 12 12 11 11 11 12 12 12 13 13 14 15 15 16 16 17 17 17 17 17 17 17 17 17 17 17 17 16 16 15 14 14 14 14 14 14 14 14 15 15 16 17 19
7 7 6 7 7 7 7 9 11 11 11 11 11 10 10 10 10 9 8 9 9 9 8 8 9 9 11 10 10 11 12 14 16 16 17 17 17 17 17 16 16 15 15 14 14 13 13 13 13 13 13 13 14 14 14 15 15 16 16 17 17 18 18 18 18 18 17 17 17 17 16 15 15 14 14 15 15 15 15 15 15 16 16 17 18 20
7 7 6 6 6 6 6 8 9 10 11 11 11 11 12 13 11 10 9 9 9 9 9 8 8 9 10 10 10 11 12 14 15 17 17 18 18 18 18 18 18 18 17 16 16 15 15 14 14 14 14 14 14 14 14 15 15 15 16 16 16 17 17 17 17 17 17 17 17 16 16 15 14 14 14 15 15 15 16 16 16 16 17 18 20 21
8 8 7 6 6 7 7 7 8 8 8 9 11 12 13 12 11 9 9 10 10 10 10 10 10 10 9 10 10 10 12 13 15 16 17 18 19 19 19 19 19 19 19 18 17 17 16 15 15 15 15 14 14 14 14 15 15 15 15 15 15 16 16 16 16 16 16 16 16 16 15 15 14 14 14 15 16 16 16 17 17 17 18 19 21 22
8 8 8 7 7 7 7 7 7 7 7 8 10 11 12 10 9 9 9 10 10 10 10 10 11 11 10 9 10 10 11 12 14 15 17 18 18 18 19 19 19 19 19 18 18 17 17 16 16 15 15 15 15 15 15 15 15 15 15 15 15 15 15 15 15 15 15 15 15 15 15 14 14 14 15 15 16 17 17 18 18 18 19 20 22 23
8 7 7 7 7 7 7 7 7 7 8 8 9 10 10 9 9 9 9 9 10 10 9 9 10 11 11 10 11 11 11 11 12 14 15 16 17 17 17 17 17 17 17 17 17 17 17 17 16 16 16 16 16 16 15 15 15 15 15 15 15 15 15 15 15 15 15 15 15 15 14 14 14 14 15 16 17 18 19 19 19 19 20 21 23 24
8 7 7 7 7 6 6 7 7 8 8 8 8 8 9 8 9 9 9 9 9 9 9 9 9 10 10 11 12 12 11 11 11 13 14 15 16 16 16 16 16 16 16 16 16 16 17 17 17 17 17 17 17 16 16 16 15 15 15 15 15 15 15 15 15 15 15 15 14 14 14 14 14 14 15 16 17 19 19 20 20 20 21 22 23 24
8 8 7 7 7 7 6 7 7 7 8 8 7 7 8 7 8 8 9 10 10 9 8 8 8 8 9 10 11 11 11 10 10 10 12 13 14 15 15 15 16 16 16 16 16 16 17 17 17 17 18 18 17 17 17 16 16 16 16 16 16 16 16 16 15 15 15 15 15 14 14 14 14 14 15 16 17 18 19 19 20 21 22 23 24 25
10 9 8 8 8 8 7 7 7 7 7 7 7 8 8 8 8 8 8 9 9 9 8 8 8 8 8 9 10 10 10 10 9 9 9 9 10 11 13 14 15 16 17 17 17 17 17 17 18 18 18 18 18 18 17 17 17 17 17 17 17 17 16 16 16 16 16 15 15 15 14 14 13 14 14 15 16 17 17 18 20 21 23 24 25 25
10 10 9 8 8 7 8 8 7 7 8 7 7 8 8 9 10 9 9 9 8 8 7 8 8 8 8 8 8 8 8 9 10 11 10 9 9 9 10 11 12 14 16 17 17 18 18 18 18 18 18 18 18 18 18 17 17 17 17 17 17 17 17 17 17 17 16 16 15 15 14 14 14 14 14 15 16 16 16 17 19 21 23 25 25 25
9 9 8 8 7 7 7 7 7 7 7 8 8 8 8 9 9 10 11 11 10 8 8 8 8 8 8 8 8 8 7 7 8 9 10 10 9 9 9 9 9 11 13 15 16 17 18 18 18 18 18 18 18 18 18 18 18 18 18 18 18 18 18 18 17 17 17 17 16 16 15 15 14 14 15 15 15 16 16 17 19 21 23 25 25 25
7 7 7 7 7 7 7 7 7 6 6 7 7 8 9 8 8 9 10 11 10 9 9 8 8 8 8 8 8 7 7 6 6 6 7 7 7 7 7 7 8 9 10 12 13 15 17 17 18 18 17 18 18 18 18 18 18 18 19 19 18 18 18 18 18 18 17 17 16 16 15 15 15 15 15 15 16 16 16 17 18 20 22 24 25 25
7 6 6 7 7 7 7 7 6 6 6 6 7 8 8 7 7 7 9 10 10 9 9 8 8 8 8 8 8 7 7 6 5 5 5 5 5 5 5 6 6 7 7 8 9 11 13 15 16 16 17 17 17 18 19 18 19 19 19 19 19 19 19 19 18 18 18 17 17 16 16 15 15 15 15 16 16 16 17 17 18 20 21 23 24 24
7 7 7 7 7 7 7 7 7 7 7 7 7 8 7 7 7 8 8 9 9 9 9 9 9 9 8 8 8 8 8 7 6 5 5 6 6 6 5 5 6 6 6 6 7 8 9 10 11 13 15 16 17 18 18 19 19 20 20 20 20 20 19 19 19 18 18 18 17 16 16 15 15 15 16 16 17 17 18 19 20 21 21 22 23 23
7 7 8 8 8 7 7 7 8 8 8 8 8 8 8 8 8 8 9 10 10 9 9 9 10 10 9 8 8 8 8 8 6 6 7 7 7 7 6 6 5 5 6 6 7 7 8 8 8 8 11 14 16 16 17 18 19 20 20 21 21 20 20 20 19 19 18 18 17 16 16 15 15 15 16 17 17 18 19 20 21 21 22 22 22 22
7 8 8 9 8 8 7 7 8 8 8 8 8 8 8 8 8 8 9 10 9 8 8 9 10 10 9 8 8 8 8 8 7 7 8 8 8 7 7 6 6 6 6 6 6 6 6 7 7 7 9 12 15 16 17 18 19 21 21 21 21 21 20 20 20 19 19 18 17 17 16 16 16 16 16 17 18 19 20 21 22 22 22 21 21 21
7 8 9 9 9 9 8 8 8 9 8 8 8 8 8 8 8 8 8 8 8 7 7 8 8 8 7 7 7 7 7 7 7 8 9 9 9 8 7 7 7 7 6 7 7 6 6 6 6 7 8 11 14 16 18 19 20 21 22 22 22 21 21 21 20 20 19 18 18 17 16 16 16 17 17 18 18 19 20 21 22 22 21 21 21 20
7 8 9 9 9 9 9 8 8 8 8 8 8 8 8 8 7 7 7 7 7 7 7 6 6 6 6 7 5 3 4 6 7 8 9 10 9 7 7 7 8 8 8 8 7 7 7 6 7 7 8 11 13 16 18 19 20 21 22 22 22 22 22 21 21 20 20 19 18 17 17 17 17 18 18 19 19 20 20 21 21 21 21 20 20 19
7 8 9 9 9 9 9 9 8 8 8 8 8 8 8 8 8 8 8 8 8 8 8 8 7 7 7 8 5 2 3 5 6 8 9 10 9 7 5 6 7 8 9 9 8 7 7 7 8 9 10 12 14 16 18 19 21 22 22 22 23 22 22 22 21 21 20 19 19 18 18 18 18 18 19 20 20 21 21 21 21 21 21 20 20 19
8 8 8 9 9 10 10 9 9 9 9 8 8 8 9 8 8 8 9 8 8 8 9 9 9 9 8 9 8 5 2 4 6 8 9 10 10 8 4 5 7 8 9 9 9 8 7 8 8 9 11 12 14 16 18 20 21 22 23 23 23 23 23 22 22 21 21 20 19 19 18 18 18 19 19 20 21 22 22 22 22 21 21 20 20 19
9 10 9 9 9 9 9 8 9 10 10 10 10 9 9 8 9 9 8 8 9 9 9 9 10 9 7 8 8 6 4 4 6 7 8 9 9 8 5 6 7 8 9 10 9 8 7 8 7 8 9 12 14 16 18 20 22 23 23 23 23 23 23 23 22 22 21 21 20 19 19 18 18 19 19 20 21 22 22 22 22 21 21 20 20 19
10 10 11 11 11 10 9 10 10 11 12 11 10 9 8 8 9 10 10 9 10 10 10 10 10 10 9 9 9 7 5 5 7 8 7 8 9 8 4 5 7 8 9 9 9 8 7 8 7 8 10 13 15 16 18 20 22 23 23 24 24 23 23 23 23 22 22 21 21 20 20 19 19 19 20 20 21 21 22 22 22 21 21 20 20 19
11 11 11 11 11 11 10 10 10 11 11 10 10 10 9 9 10 11 10 10 10 11 11 11 11 11 11 11 10 9 7 6 7 8 7 9 10 8 4 5 6 8 9 8 8 8 7 8 8 9 10 13 15 16 17 19 21 23 24 24 24 24 24 23 23 23 22 22 22 21 21 21 21 20 20 20 21 21 21 21 21 21 20 20 19 19
11 11 11 10 9 9 9 9 9 8 8 8 9 10 9 10 10 11 10 10 10 10 10 10 11 11 11 12 12 11 10 8 6 6 6 8 9 8 4 4 6 7 8 8 7 7 7 7 8 8 8 12 14 16 17 18 21 23 24 25 25 24 24 24 23 23 23 23 23 23 22 22 22 22 21 21 21 20 20 20 20 20 19 19 19 18
11 11 10 10 11 11 11 11 11 11 10 9 9 9 9 10 10 11 10 10 10 10 9 10 11 11 11 11 11 11 10 8 7 6 6 6 7 7 5 4 5 7 7 7 7 7 7 7 8 8 8 10 12 15 16 17 19 21 24 25 25 25 25 24 24 24 24 24 24 24 24 24 24 23 23 22 21 21 20 20 19 19 19 18 18 17
16 16 16 18 20 21 23 23 22 22 21 17 14 11 10 10 10 10 9 9 9 9 9 10 11 11 10 9 10 10 8 8 7 7 6 5 5 6 5 4 5 6 7 6 6 6 7 8 8 8 7 9 11 13 15 16 17 19 21 23 24 25 25 25 25 24 24 24 24 25 25 25 25 24 24 23 22 22 21 20 20 19 19 18 17 17
24 25 26 27 28 29 29 29 30 30 31 28 24 19 15 12 11 11 11 9 8 8 10 11 10 9 8 9 9 9 8 8 8 7 6 5 6 7 6 5 5 7 8 6 5 5 7 8 8 8 8 7 8 11 14 15 16 18 19 21 23 24 25 25 25 25 25 25 25 25 25 25 25 25 25 24 23 22 22 21 21 20 18 17 15 14
26 27 28 28 29 29 29 30 30 31 32 32 32 29 22 15 13 13 13 10 9 9 11 11 10 8 7 8 9 9 8 8 8 8 7 6 6 8 7 6 7 8 7 5 3 4 7 8 8 8 8 7 8 9 12 14 16 17 18 20 22 24 25 26 26 26 26 25 25 25 26 26 26 26 26 25 24 23 23 22 21 20 17 14 11 9
23 24 25 26 27 27 28 28 29 29 30 31 31 29 23 16 14 14 13 11 10 11 12 11 10 9 8 8 8 8 8 9 9 8 6 6 7 8 7 7 8 8 6 4 3 3 5 6 7 7 7 8 8 8 8 11 13 15 16 19 21 23 24 26 26 26 26 26 26 26 26 26 26 26 26 25 25 24 24 23 21 18 14 11 9 8
17 19 20 21 22 22 23 22 22 23 25 27 28 26 21 16 14 14 13 12 11 12 13 12 11 10 9 9 8 7 7 8 8 7 6 6 7 7 6 7 8 8 5 4 3 4 5 5 6 6 7 7 7 7 6 8 9 10 12 15 18 20 23 25 26 26 26 26 26 26 26 26 26 26 26 26 25 25 25 24 21 16 11 9 8 8
15 16 16 16 17 16 16 16 16 17 19 21 22 21 18 15 14 13 13 12 11 12 12 12 12 11 10 9 8 7 6 6 6 6 6 6 6 6 5 7 8 7 5 6 5 5 5 5 5 6 7 7 7 7 6 6 6 7 8 9 12 15 21 24 25 25 26 27 27 27 27 27 27 26 26 26 26 26 25 24 20 15 10 9 8 8
14 14 13 14 13 13 12 12 12 13 14 14 14 14 14 14 13 12 12 11 11 11 11 11 11 11 11 10 9 8 6 5 5 6 7 6 5 5 4 7 7 7 6 8 9 8 6 5 4 5 6 6 6 6 6 6 6 5 6 7 8 11 18 21 22 23 23 25 27 28 28 27 27 27 26 26 26 26 25 24 21 15 11 9 9 9
14 13 12 12 12 12 11 11 11 11 11 11 11 11 12 12 12 12 11 11 11 10 10 10 10 10 11 11 11 10 8 7 6 7 7 6 5 4 4 5 6 6 6 8 9 9 6 5 4 4 4 5 5 5 5 5 5 5 5 6 7 9 13 16 17 18 18 20 23 25 27 27 27 27 27 27 26 26 25 24 21 17 12 10 9 9
14 14 13 13 13 12 12 12 12 12 11 11 11 11 11 11 11 12 12 12 11 11 10 10 10 10 10 10 10 10 9 9 8 8 8 7 6 5 4 5 6 6 6 6 7 6 5 5 4 3 3 3 4 3 3 3 3 3 4 5 6 7 9 11 12 12 13 14 14 16 20 21 23 25 25 25 25 25 25 24 21 18 15 11 10 10
13 13 13 13 13 13 13 13 13 12 12 11 11 11 11 11 11 11 11 11 11 11 10 10 10 10 10 10 10 10 10 9 9 8 7 7 7 6 6 6 5 5 5 6 5 5 5 5 4 3 3 3 3 3 2 1 1 2 3 4 5 6 7 9 9 9 10 10 9 10 11 12 14 17 19 21 23 23 24 23 21 19 16 14 12 10
12 13 13 13 12 12 13 13 12 12 12 11 11 11 11 11 11 11 11 11 11 11 11 11 10 10 10 10 10 10 10 9 9 9 8 8 8 7 7 6 5 5 6 6 6 5 5 5 5 4 4 4 3 3 2 1 1 1 2 3 4 5 6 7 8 8 8 8 8 8 8 8 9 10 12 18 21 22 23 22 21 19 17 15 13 12
12 13 12 12 12 12 12 12 11 11 11 11 11 11 11 11 11 11 11 11 10 11 11 12 12 12 12 11 11 11 10 10 10 10 10 8 7 7 7 6 6 6 7 7 6 5 6 5 5 4 4 4 4 3 3 2 1 1 2 2 3 3 5 6 7 8 8 8 8 8 8 8 8 9 10 16 19 20 21 21 20 18 16 15 14 13
11 11 11 10 10 11 11 11 10 11 11 11 11 11 12 12 12 12 11 11 11 12 11 11 11 12 15 15 14 13 13 13 13 13 14 11 9 8 7 6 7 9 9 8 7 7 7 6 6 5 4 4 4 4 4 4 4 3 3 2 2 3 4 5 6 7 7 8 9 9 9 8 8 9 10 12 13 13 14 14 15 15 15 13 13 12
11 11 11 11 11 10 10 10 10 10 10 11 11 11 11 12 12 12 11 11 12 12 12 11 11 11 13 14 15 16 15 14 14 14 14 13 11 10 9 8 8 9 9 9 8 8 9 8 7 6 5 4 4 4 4 4 5 5 4 3 2 2 3 4 5 6 7 9 9 9 8 8 8 8 9 10 10 10 10 10 11 11 11 10 10 10
11 12 12 12 11 11 11 11 11 11 11 11 11 11 11 11 10 10 11 11 11 11 12 12 12 11 11 12 13 15 15 14 13 12 12 10 10 11 11 9 8 8 8 8 9 10 11 10 8 8 7 6 5 5 5 5 5 6 6 4 3 3 3 4 5 6 6 8 9 9 8 8 8 9 9 10 10 10 10 9 10 10 10 9 9 9
12 11 11 11 11 11 12 12 12 11 11 11 10 10 9 9 8 8 8 9 9 10 10 10 10 10 11 11 13 14 15 15 15 14 11 10 11 11 11 9 8 8 8 8 9 11 12 11 10 9 8 7 7 6 6 7 8 9 9 7 5 5 5 5 5 5 6 7 8 9 9 9 9 9 9 9 9 9 9 9 10 10 10 9 9 9
12 12 11 11 10 11 11 12 12 12 11 10 9 9 9 8 8 8 8 8 8 9 9 9 9 9 9 10 11 12 13 14 14 14 13 12 12 12 11 10 9 8 8 8 9 11 12 12 11 10 9 8 7 6 5 7 8 9 9 8 7 6 5 5 5 5 6 6 7 8 10 10 9 9 9 9 8 7 8 9 10 10 10 9 8 8
11 11 11 11 11 11 11 11 10 9 9 8 9 9 9 9 9 8 8 8 8 9 9 8 8 9 9 9 9 9 10 11 13 13 13 12 12 13 13 13 11 10 9 8 9 10 10 10 9 9 9 8 8 7 7 7 8 8 8 9 8 7 5 5 5 5 6 6 7 7 8 8 8 8 8 8 7 7 7 8 9 10 10 9 8 8
11 10 10 10 9 8 8 7 7 7 7 8 9 10 10 10 10 9 9 8 9 9 9 8 8 9 10 10 9 9 8 9 11 12 12 12 12 13 13 14 13 12 11 10 8 7 6 6 7 7 7 7 7 7 7 8 8 8 8 9 9 9 7 7 7 7 6 6 7 7 7 7 7 7 7 6 6 6 7 7 7 7 8 7 7 7
11 10 10 10 10 10 10 9 9 8 9 9 9 10 10 10 10 9 9 9 9 10 9 8 8 8 9 9 8 8 8 8 8 9 10 11 13 14 13 12 12 12 12 11 9 8 6 5 5 5 4 5 6 8 8 9 9 9 9 9 9 8 7 7 8 9 8 8 8 7 8 8 8 7 7 6 6 6 7 7 7 7 7 6 6 7
10 10 11 10 10 10 11 10 10 9 9 9 10 10 10 10 9 9 9 10 10 10 9 9 8 8 9 8 8 7 7 8 8 8 7 8 10 11 11 11 11 10 10 10 10 10 8 7 6 5 5 5 6 7 8 9 9 9 9 9 8 7 7 7 8 9 9 9 9 9 9 9 8 8 7 7 7 7 6 7 7 7 7 7 6 6
11 11 11 10 10 10 10 10 10 9 9 10 10 10 10 9 9 9 9 10 10 10 10 9 9 9 10 9 9 8 8 9 8 8 7 7 8 8 8 9 10 11 10 10 11 11 11 9 9 8 8 7 7 6 7 8 9 10 9 9 8 8 7 7 8 8 8 9 9 10 11 10 9 8 8 8 7 6 6 5 6 6 7 7 6 6
11 11 11 10 10 10 10 10 10 10 10 10 10 10 10 10 10 9 9 9 9 9 9 9 9 10 10 10 9 9 9 9 9 8 7 7 7 7 7 7 8 9 10 11 12 12 11 11 11 11 11 9 8 8 8 8 9 9 9 9 9 9 8 8 8 8 8 9 10 11 12 10 9 9 9 8 7 6 6 5 5 5 5 6 6 6
10 10 10 10 10 10 10 10 10 10 10 10 10 10 10 11 12 11 9 9 9 9 9 10 10 10 10 9 9 9 9 9 9 8 7 6 6 5 5 6 7 7 8 9 9 9 8 8 9 9 10 9 9 9 9 9 9 9 9 9 9 9 8 8 8 8 8 9 10 11 11 9 9 9 9 9 8 8 7 6 5 5 5 5 6 6
11 11 11 10 10 10 10 10 10 10 10 11 10 10 10 10 10 10 9 9 9 9 9 10 10 10 10 9 9 9 9 9 8 8 7 6 5 5 5 5 5 5 5 5 4 4 2 3 3 3 4 5 7 9 10 10 9 9 8 8 8 8 8 8 8 8 9 9 10 10 10 8 8 8 8 9 9 9 8 7 6 5 5 5 6 6
11 11 11 11 11 11 11 10 10 11 11 11 11 10 10 10 9 9 9 9 9 10 10 10 10 10 10 10 10 10 9 9 8 8 8 6 5 5 5 5 4 4 3 3 3 3 3 2 2 0 2 2 1 4 8 10 10 9 8 8 7 7 7 7 8 8 9 9 9 9 10 9 8 7 7 8 8 8 8 7 7 6 5 5 6 6
Wind_Direction
278 278 276 272 273 277 280 281 282 283 282 283 284 284 285 277 272 269 268 267 268 269 269 268 268 268 266 260 255 253 252 253 253 252 251 249 245 240 234 228 222 218 216 216 217 219 220 220 219 219 217 216 214 212 209 206 203 200 198 196 196 195 195 194 195 195 197 200 203 206 208 207 205 203 203 202 199 196 192 191 193 195 197 196 193 189
273 271 266 261 263 268 276 277 277 278 280 282 284 285 287 287 286 284 281 273 269 267 266 266 267 268 269 266 260 254 252 252 252 251 250 248 245 240 235 228 222 217 214 213 213 214 215 216 216 216 215 214 212 210 207 204 201 199 197 197 197 197 197 198 199 200 201 204 206 209 210 208 205 202 201 200 197 194 191 192 194 196 199 197 194 190
276 275 270 263 260 262 269 274 275 277 280 284 286 289 291 290 289 287 286 281 276 272 268 268 268 269 270 270 264 257 254 252 252 251 250 248 245 240 235 229 222 217 213 211 210 210 212 213 214 214 214 213 211 209 206 203 200 198 197 197 198 198 200 201 202 203 204 206 208 210 210 207 204 200 199 198 197 195 192 194 196 198 200 197 193 190
282 282 282 279 272 268 269 274 277 278 281 283 285 286 287 286 285 283 283 283 282 280 276 275 274 274 274 273 269 262 256 253 252 251 250 248 245 240 235 229 223 217 212 210 208 208 209 210 212 212 212 212 211 209 206 203 201 200 199 199 199 200 201 203 204 204 205 206 207 208 208 205 202 200 199 198 197 196 196 197 199 200 199 196 192 190
283 285 288 288 284 280 278 280 282 283 283 282 283 283 283 281 281 282 282 282 281 281 280 279 279 278 278 277 274 268 260 256 253 251 250 247 244 240 235 229 223 218 213 210 208 207 207 209 210 211 211 211 211 209 207 205 203 201 201 201 202 203 204 204 205 205 205 205 205 205 205 203 202 200 200 200 199 199 199 199 200 200 198 194 191 189
288 289 294 293 292 291 293 290 289 287 284 280 279 278 277 278 279 280 281 280 279 278 278 278 278 278 278 279 278 274 267 260 255 251 249 246 243 239 234 229 225 220 216 213 210 208 207 208 209 210 211 211 210 209 207 205 204 203 203 204 204 205 205 205 205 205 204 203 203 203 202 202 202 202 202 202 202 202 201 201 200 198 195 192 191 190
290 289 291 288 287 288 289 286 283 281 279 277 275 273 273 274 275 275 275 276 275 275 274 273 273 274 276 277 276 275 271 264 257 251 247 244 241 238 234 230 227 224 221 217 214 211 210 209 209 210 210 210 210 209 207 206 205 204 204 205 205 206 206 206 206 205 204 203 202 202 202 202 202 203 204 204 204 203 202 201 199 196 193 191 190 190
285 283 281 280 281 281 278 276 274 273 274 275 276 276 276 274 273 272 271 271 270 270 269 268 268 268 269 270 271 271 270 266 261 254 248 244 240 237 234 231 228 226 224 222 219 216 213 212 212 211 211 211 210 209 207 206 205 204 204 205 205 206 206 206 205 205 204 204 204 204 204 204 204 204 204 204 203 203 202 201 199 195 192 191 191 191
285 286 284 283 284 285 283 278 276 276 278 280 281 282 283 281 278 276 273 270 268 266 267 267 266 265 264 264 265 265 265 265 263 258 251 245 240 237 234 232 229 227 225 223 222 219 217 216 215 214 213 212 211 210 208 206 205 204 204 204 204 205 205 205 205 205 205 206 206 207 207 207 207 207 206 204 203 202 202 201 198 196 193 192 192 192
286 287 287 286 286 285 286 285 285 286 287 286 284 284 283 282 282 280 277 274 271 269 268 268 268 269 267 265 263 261 260 260 259 256 252 246 243 241 238 235 231 228 225 224 223 222 220 219 218 217 216 215 213 211 209 206 205 204 203 203 204 204 204 205 205 206 206 207 208 209 210 210 210 210 209 206 203 202 201 200 198 196 194 193 193 192
283 284 285 286 285 283 282 284 287 289 288 285 281 277 273 273 275 277 277 275 274 273 271 270 269 270 271 269 265 261 256 256 255 254 251 246 244 244 242 240 237 232 228 226 224 223 222 222 221 220 219 218 216 213 210 207 205 204 203 203 203 203 204 205 206 206 207 208 210 211 211 212 212 212 211 208 205 202 201 199 198 196 193 193 193 193
286 288 288 287 287 286 283 283 284 284 282 278 274 270 265 263 264 267 270 272 273 273 273 272 271 270 272 273 271 267 260 255 253 252 251 245 241 240 240 240 240 237 233 230 227 225 224 224 223 223 222 220 218 214 211 208 206 204 203 203 203 203 204 205 206 207 208 209 210 211 211 212 212 212 213 210 207 203 201 198 196 194 192 192 192 192
289 290 289 288 288 288 288 288 286 282 276 271 270 270 271 269 268 267 268 270 271 272 274 274 273 271 271 272 273 272 269 261 256 251 249 247 241 236 235 237 237 236 233 232 230 228 225 224 224 224 224 222 219 215 211 209 206 204 203 203 203 204 205 205 206 207 208 209 210 210 210 210 211 211 212 210 207 204 200 197 194 192 190 190 190 191
287 289 288 287 287 287 289 290 289 287 284 282 283 284 288 290 288 284 280 277 276 277 279 278 277 275 273 271 270 271 270 266 262 256 250 248 243 238 236 237 234 231 226 230 230 228 223 222 223 225 224 223 220 216 212 209 206 204 203 203 203 204 205 206 206 207 208 209 209 209 209 209 209 210 210 209 206 202 198 195 192 190 188 188 188 189
288 289 287 286 286 287 289 290 289 288 288 290 291 292 295 294 290 286 283 281 281 280 279 277 275 273 269 267 267 268 267 264 261 258 256 252 245 239 236 238 235 231 224 227 228 226 219 217 219 222 222 223 221 218 213 210 206 204 203 203 203 204 205 206 206 207 208 208 209 208 207 207 207 208 208 207 204 201 197 193 191 189 187 186 186 186
287 287 285 285 284 284 285 286 285 285 285 286 287 287 288 286 285 283 281 281 281 280 274 271 270 268 264 262 260 259 258 257 257 257 260 256 248 238 230 232 234 233 226 226 226 224 217 214 215 217 219 220 218 215 212 210 207 205 204 203 203 203 204 205 206 206 207 208 208 207 206 206 206 206 207 205 202 198 194 192 190 188 186 185 184 183
281 281 281 282 281 281 280 280 279 280 283 284 284 284 285 285 287 290 290 290 290 286 277 273 271 269 267 260 252 245 242 248 252 256 260 259 252 239 222 224 229 233 230 229 228 225 218 213 212 213 217 217 215 213 212 210 208 206 204 203 203 203 203 204 205 206 206 207 207 206 205 205 205 205 204 202 199 195 192 189 187 186 185 183 181 179
270 271 273 274 276 277 279 278 278 279 282 282 283 283 283 284 288 290 291 293 293 293 291 286 279 275 276 272 265 241 208 229 245 255 258 261 257 246 224 223 228 233 235 235 233 229 224 221 216 214 215 213 212 212 211 210 209 206 204 203 202 202 202 203 203 204 205 205 205 205 204 203 203 202 202 199 195 192 188 185 184 183 181 180 178 175
267 268 270 273 275 277 279 279 280 282 282 283 285 286 284 281 280 279 278 281 284 287 289 289 286 283 283 282 285 274 184 216 235 248 253 258 258 251 230 225 229 235 239 238 235 230 228 228 225 221 216 213 211 211 211 211 210 207 205 203 202 201 201 202 202 203 203 203 203 202 201 201 200 199 198 195 191 188 184 182 180 178 177 175 173 171
267 265 264 270 274 275 273 273 274 277 278 281 282 282 280 281 280 279 278 280 279 278 278 279 280 281 285 287 290 290 248 234 239 245 248 254 255 250 228 222 228 235 240 241 239 235 233 233 230 226 219 216 213 212 211 211 210 208 205 203 201 200 200 200 201 201 201 201 200 199 197 196 195 193 192 189 186 183 181 178 176 175 173 172 170 168
267 265 263 266 269 271 270 270 271 274 278 282 284 283 281 283 282 279 276 277 276 274 272 271 272 275 281 287 293 299 297 269 258 255 254 254 252 246 225 218 224 233 239 242 241 239 238 237 235 231 226 221 217 214 212 211 210 209 206 203 201 199 199 199 199 199 199 198 196 194 192 190 188 186 184 182 180 178 176 175 173 171 170 169 167 166
265 266 265 265 265 267 270 272 274 275 279 281 280 278 277 277 275 273 272 273 273 272 271 270 272 275 278 281 287 293 297 279 273 272 273 263 255 246 219 211 221 232 237 240 240 238 237 237 236 234 231 226 221 217 214 212 210 208 206 203 201 199 198 198 198 198 197 195 192 190 187 184 181 179 177 176 175 174 172 171 170 168 167 166 165 165
263 265 267 265 265 266 270 272 273 274 274 272 269 267 266 264 265 266 267 265 265 265 266 268 270 271 271 272 276 279 277 272 275 279 280 271 262 253 224 211 217 227 233 236 238 239 237 237 237 236 233 227 224 220 217 214 211 208 206 203 201 199 198 197 197 196 195 193 190 186 183 180 177 174 172 171 170 169 168 167 166 165 164 164 163 163
264 267 268 267 266 267 270 271 271 270 269 267 266 265 264 263 263 263 263 260 260 260 261 261 262 261 260 262 265 267 265 262 263 267 269 270 268 262 243 221 220 226 230 229 232 236 238 238 238 237 236 229 226 224 221 218 214 210 207 204 201 199 197 197 196 195 193 191 188 184 181 178 175 172 170 169 168 167 165 165 163 163 162 162 162 162
269 270 271 270 269 269 270 271 271 272 272 272 272 273 273 271 270 269 268 266 265 264 263 260 257 256 255 256 258 260 259 254 250 252 257 266 270 267 255 236 230 232 233 228 227 230 236 237 237 237 237 233 230 227 226 222 218 214 209 205 202 199 197 196 195 194 192 190 187 184 180 177 175 172 170 168 167 166 164 163 162 161 160 160 160 161
269 269 270 270 271 271 271 272 272 273 273 272 273 274 277 278 279 277 274 271 271 271 269 264 260 257 256 255 255 255 255 248 242 239 244 257 266 266 256 244 242 244 246 236 227 226 233 235 235 234 235 236 232 229 228 227 224 219 214 208 204 200 197 195 194 193 191 189 186 183 181 178 175 173 170 169 167 166 164 163 162 160 159 159 160 161
266 267 268 269 269 270 270 270 271 271 271 271 270 270 271 274 276 275 272 272 275 278 276 271 268 265 261 257 256 256 255 250 243 239 238 250 260 260 254 249 250 255 256 247 233 225 229 233 233 231 233 235 234 231 229 228 227 224 220 214 207 202 197 195 193 192 190 188 186 183 181 178 176 174 171 169 167 166 164 163 161 160 158 158 159 161
264 264 265 266 266 267 268 268 268 269 269 269 269 269 269 268 267 266 265 267 272 274 273 272 272 273 270 264 262 262 260 255 250 246 243 249 253 254 252 252 254 256 257 251 232 219 225 230 230 229 230 231 232 231 229 228 227 227 225 219 212 205 199 195 192 191 189 187 185 183 181 179 177 174 172 169 167 165 164 162 160 159 158 158 159 162
264 264 264 264 265 266 267 268 268 267 267 267 266 266 266 264 263 263 264 265 264 264 264 266 269 272 274 273 271 268 261 256 253 251 249 251 253 254 253 253 252 250 250 243 228 221 226 227 226 225 228 228 229 229 229 226 226 227 227 222 216 208 201 196 192 190 188 186 184 182 181 179 177 175 172 169 167 165 163 161 160 158 157 159 160 161
268 268 267 267 267 267 268 269 269 269 267 266 265 264 262 261 260 262 264 263 259 256 258 261 263 266 271 274 274 269 259 254 251 249 245 249 253 254 252 251 248 243 228 224 227 229 229 222 218 218 222 224 225 226 227 224 223 224 225 222 217 211 204 197 192 189 187 185 184 182 181 179 177 175 172 169 167 165 162 161 159 159 159 160 161 163
276 275 274 273 273 272 272 272 271 270 268 266 264 263 260 259 258 259 261 258 254 252 254 256 258 259 262 266 267 265 260 256 252 246 238 245 250 251 245 247 245 236 212 214 222 231 231 217 209 208 212 216 219 222 223 224 224 222 219 217 215 211 205 197 192 189 186 185 183 182 181 179 177 174 171 169 167 165 163 162 161 160 160 161 163 166
278 278 277 277 276 274 272 270 268 268 267 266 264 261 259 258 256 256 256 254 252 251 251 253 254 255 254 255 257 259 263 263 259 252 243 249 252 249 231 241 243 237 218 216 220 226 232 219 202 193 199 206 211 216 219 223 228 228 221 213 211 207 201 196 192 189 186 185 183 182 180 178 176 174 171 169 167 165 164 163 163 162 161 162 165 167
276 274 273 272 272 270 268 267 266 266 265 265 263 261 259 256 254 253 253 252 251 251 250 253 254 254 253 252 254 256 260 262 260 254 248 253 256 252 228 237 242 243 232 225 224 226 231 223 202 181 187 198 202 206 213 222 230 234 228 215 209 202 195 193 192 190 188 185 183 182 180 178 175 173 170 168 167 165 165 165 165 164 163 163 165 167
271 270 269 269 268 267 265 264 263 262 261 261 260 259 258 256 254 252 252 252 251 251 251 252 254 255 256 255 256 256 257 258 258 254 247 251 256 257 242 239 242 245 243 238 233 229 233 223 204 176 176 189 195 198 203 218 236 245 241 221 206 194 189 188 189 188 186 183 182 181 180 177 175 172 169 167 166 166 166 166 166 166 166 165 165 165
269 269 268 267 266 265 263 261 260 259 259 258 258 258 257 257 256 255 254 253 252 251 250 250 251 253 255 257 258 259 258 257 256 253 247 250 255 260 256 248 243 240 241 242 237 232 234 223 209 185 167 177 188 195 190 209 256 269 263 232 207 191 183 181 180 178 177 175 173 173 174 173 172 170 168 167 166 166 166 166 167 168 169 169 168 166
268 268 267 265 264 263 262 260 259 259 259 259 259 258 259 259 258 257 256 254 253 252 251 249 249 249 250 253 256 258 260 261 259 254 247 247 252 258 261 257 250 242 238 237 235 231 231 225 213 197 182 180 184 188 181 180 280 284 268 232 205 187 177 172 168 166 165 164 162 161 161 162 163 164 164 164 164 164 165 166 168 169 170 171 171 169
265 265 264 263 262 263 263 262 262 262 261 261 260 259 259 258 258 257 256 254 252 251 251 250 248 247 246 248 251 254 259 261 260 256 251 246 247 251 257 262 259 252 244 238 233 228 225 219 211 203 199 194 187 179 171 164 184 221 221 202 187 173 165 160 158 157 157 157 155 153 151 152 154 155 156 159 160 161 163 165 167 169 170 171 171 170
266 266 266 266 266 267 268 267 266 264 263 261 260 258 257 257 256 256 255 253 251 250 250 249 248 248 247 248 250 252 256 259 260 260 257 253 249 247 249 257 259 256 253 245 237 228 221 214 207 203 206 204 195 181 168 167 175 183 182 170 161 155 154 151 150 151 152 152 150 148 147 146 147 148 150 154 155 156 159 163 165 167 169 168 168 168
273 274 274 273 272 272 271 269 267 265 263 262 260 259 258 257 256 255 255 254 253 251 250 249 250 250 249 249 250 252 255 256 258 258 258 255 252 247 245 249 253 255 255 252 245 236 227 219 210 202 199 200 194 184 169 171 173 173 161 149 143 146 150 147 147 148 149 149 148 146 144 144 144 146 149 151 152 152 154 157 161 164 165 164 163 163
273 272 272 271 270 269 268 267 266 265 264 263 262 261 260 259 258 258 257 256 255 254 253 252 252 253 252 252 252 252 252 251 251 250 251 250 248 247 246 247 250 253 257 256 251 244 236 226 215 205 198 196 191 182 172 176 176 170 159 156 159 164 162 151 148 147 147 148 148 148 145 144 145 148 151 153 155 156 157 157 160 163 164 164 162 161
269 269 268 268 267 266 265 264 263 263 262 262 261 260 258 258 258 258 257 255 254 253 252 253 254 255 255 254 253 252 250 248 246 243 241 239 240 242 243 244 247 251 254 255 252 246 237 229 219 209 200 196 188 179 173 177 176 173 170 170 167 162 154 151 148 146 145 147 148 148 146 146 148 150 153 155 156 156 155 155 158 161 164 167 168 166
270 269 269 268 267 265 263 263 263 263 261 260 258 256 254 254 254 254 253 253 253 253 254 256 258 259 258 256 254 251 248 245 241 238 235 230 228 230 234 238 241 244 247 251 253 250 245 235 223 211 201 193 185 178 174 175 176 178 180 172 158 146 140 153 154 148 146 146 146 147 148 149 151 152 153 153 152 150 150 152 156 160 163 167 170 171
271 271 272 274 275 274 273 272 270 268 264 261 257 255 254 254 254 254 254 255 255 256 257 257 258 259 261 260 258 254 250 246 243 239 235 226 223 224 229 232 235 237 239 246 251 253 249 239 227 212 199 187 180 174 170 170 175 181 183 170 159 152 157 165 162 153 148 147 147 147 149 149 150 149 148 146 144 143 144 149 154 159 164 166 168 172
275 277 279 280 281 282 283 280 276 271 265 262 260 258 257 256 255 255 254 255 255 255 254 254 256 259 261 261 261 259 256 250 245 240 236 229 225 225 229 231 232 234 236 238 241 244 243 240 233 221 203 188 179 174 169 170 174 178 180 173 169 167 167 159 155 153 151 149 148 147 147 144 141 139 137 136 136 138 143 147 152 158 163 165 167 170
275 275 274 273 273 274 276 276 274 270 265 262 260 259 259 257 254 251 249 250 251 251 250 249 252 256 257 257 257 257 257 253 248 242 237 233 232 233 233 231 231 232 233 233 232 229 224 226 226 223 213 195 183 175 171 171 173 175 176 174 172 168 160 150 151 155 156 153 151 149 146 140 136 132 132 134 137 141 145 149 152 155 159 162 165 169
269 269 268 268 269 269 270 270 269 267 265 263 262 261 260 258 254 249 245 245 246 247 246 246 247 251 254 255 255 254 254 252 249 244 237 233 232 231 230 228 229 230 231 230 228 224 219 215 210 206 204 197 188 179 174 172 172 172 173 171 168 160 149 152 156 159 157 154 153 151 147 141 136 134 138 140 142 144 146 151 153 155 156 156 159 163
268 267 267 266 266 265 265 265 265 264 263 263 263 262 262 259 256 250 245 244 244 246 246 244 244 246 250 252 253 252 251 250 248 244 239 234 228 224 222 223 226 228 229 229 227 225 221 215 206 199 195 191 186 181 176 174 172 171 170 167 163 159 156 159 160 160 156 154 153 151 149 144 142 140 142 141 140 141 142 145 148 150 151 152 153 156
270 268 267 266 266 265 265 264 263 262 262 263 263 263 262 260 257 254 251 248 247 247 247 245 243 243 245 246 247 247 248 250 249 247 242 236 231 226 222 223 224 226 227 228 227 224 221 213 205 200 195 189 183 176 173 173 173 171 168 166 163 161 159 158 159 158 156 156 154 153 152 151 150 148 144 141 141 141 141 139 140 142 145 147 150 152
277 275 274 273 271 269 267 266 264 263 263 263 264 263 262 260 258 256 254 252 250 250 250 248 246 244 243 242 242 244 247 250 250 249 244 238 233 228 225 223 224 226 229 230 229 225 220 213 209 206 203 195 185 175 170 170 170 168 165 165 164 162 158 156 156 157 157 156 155 155 156 154 152 149 145 144 145 146 144 141 139 139 141 146 149 151
284 283 282 281 279 277 274 272 270 267 266 265 264 262 261 259 257 254 253 252 250 250 249 249 248 246 244 242 242 244 248 250 250 248 244 238 232 227 226 225 227 229 232 229 221 211 203 202 216 233 242 217 192 176 168 165 163 162 163 164 164 161 157 155 155 156 156 155 155 156 155 152 149 147 146 146 146 145 143 143 142 141 142 146 149 149
284 283 283 282 281 280 279 277 274 271 269 267 265 263 262 260 257 254 252 250 248 248 247 246 245 245 245 244 245 247 249 250 249 247 243 237 229 222 223 220 217 211 205 194 184 175 167 163 167 215 327 326 251 175 169 161 158 158 160 162 160 156 153 152 153 154 154 154 155 155 154 152 151 150 151 148 146 145 145 146 147 146 145 147 148 147